CW1490 Weather Reports


Display with metric or nautical units.
time (UTC)temp
F
wind
direction
speed
MPH
gust
MPH
rain 1hr
in
rain 24hr
in
rain mn
in
humidity
%
barometer
mb
20260906235007 59 153 0.0 2.0 0.00 0.30 0.24 84 1016.6
20260906234518 59 221 0.0 1.0 0.00 0.30 0.24 81 1016.5
20260906234008 59 9 0.0 2.0 0.00 0.30 0.24 80 1016.6
20260906233515 60 34 0.0 2.0 0.00 0.30 0.24 80 1016.5
20260906233027 60 51 0.0 3.0 0.00 0.30 0.24 79 1016.4
20260906232512 61 61 0.0 3.0 0.00 0.30 0.24 79 1016.5
20260906232014 62 291 0.0 6.0 0.00 0.30 0.24 74 1016.4
20260906231534 63 330 2.0 6.0 0.00 0.30 0.24 73 1016.4
20260906231016 63 344 2.0 5.0 0.00 0.30 0.24 72 1016.3
20260906230515 64 15 2.0 5.0 0.00 0.30 0.24 71 1016.3
20260906230014 64 344 3.0 8.0 0.00 0.30 0.24 70 1016.3
20260906225506 64 24 2.0 8.0 0.00 0.30 0.24 70 1016.2
20260906225008 64 9 2.0 6.0 0.00 0.30 0.24 69 1016.2
20260906224516 65 346 2.0 5.0 0.00 0.30 0.24 69 1016.3
20260906224006 65 59 2.0 8.0 0.00 0.30 0.24 69 1016.3
20260906223511 66 342 2.0 9.0 0.00 0.30 0.24 68 1016.3
20260906223023 66 338 2.0 10.0 0.00 0.30 0.24 67 1016.3
20260906222512 66 26 4.0 12.0 0.00 0.30 0.24 66 1016.2
20260906222012 67 341 4.0 12.0 0.00 0.30 0.24 65 1016.2
20260906221536 67 334 4.0 11.0 0.00 0.30 0.24 65 1016.2
20260906221014 67 19 5.0 12.0 0.00 0.30 0.24 65 1016.2
20260906220516 67 9 5.0 12.0 0.00 0.30 0.24 67 1016.1
20260906220035 67 36 6.0 11.0 0.00 0.30 0.24 68 1016.0
20260906215516 67 44 3.0 8.0 0.00 0.30 0.24 71 1016.0
20260906215019 67 51 3.0 6.0 0.00 0.30 0.24 71 1016.0
20260906214532 67 342 3.0 9.0 0.00 0.30 0.24 70 1016.0
20260906214007 67 34 2.0 9.0 0.00 0.30 0.24 70 1016.0
20260906213508 67 31 3.0 8.0 0.00 0.30 0.24 67 1016.0
20260906213019 67 9 3.0 6.0 0.00 0.30 0.24 67 1015.9
20260906212511 67 9 2.0 6.0 0.00 0.30 0.24 69 1015.9
20260906212010 67 19 2.0 6.0 0.00 0.30 0.24 65 1015.8
20260906211528 67 9 2.0 8.0 0.00 0.30 0.24 68 1015.7
20260906211013 67 334 3.0 9.0 0.00 0.30 0.24 66 1015.7
20260906210513 68 24 3.0 9.0 0.00 0.30 0.24 64 1015.7
20260906210036 68 20 4.0 12.0 0.00 0.30 0.24 63 1015.7
20260906205516 68 39 6.0 17.0 0.00 0.30 0.24 60 1015.6
20260906205016 69 348 8.0 17.0 0.00 0.30 0.24 61 1015.5
20260906204534 69 48 10.0 17.0 0.00 0.30 0.24 62 1015.5
20260906204014 70 17 6.0 12.0 0.00 0.30 0.24 65 1015.5
20260906203518 70 33 6.0 18.0 0.00 0.30 0.24 61 1015.4
20260906203036 70 57 7.0 18.0 0.00 0.30 0.24 61 1015.4
20260906202507 71 18 9.0 16.0 0.00 0.30 0.24 59 1015.4
20260906202012 71 41 9.0 16.0 0.00 0.30 0.24 57 1015.4
20260906201536 70 46 5.0 15.0 0.00 0.30 0.24 61 1015.5
20260906201012 70 56 9.0 15.0 0.00 0.30 0.24 62 1015.5
20260906200504 69 36 6.0 13.0 0.00 0.30 0.24 61 1015.5
20260906200005 68 342 4.0 15.0 0.00 0.30 0.24 61 1015.5
20260906195504 69 27 7.0 25.0 0.00 0.30 0.24 60 1015.4
20260906195003 70 342 4.0 25.0 0.00 0.30 0.24 58 1015.3
20260906194507 71 48 11.0 21.0 0.00 0.30 0.24 55 1015.2
20260906194004 72 9 5.0 17.0 0.00 0.30 0.24 56 1015.2
20260906193504 72 61 11.0 17.0 0.00 0.30 0.24 55 1015.2
20260906193030 72 38 3.0 15.0 0.00 0.30 0.24 56 1015.2
20260906192506 72 319 7.0 18.0 0.00 0.30 0.24 54 1015.3
20260906192019 72 55 9.0 18.0 0.00 0.30 0.24 56 1015.4
20260906191518 72 53 5.0 17.0 0.00 0.30 0.24 58 1015.5
20260906191012 72 48 9.0 17.0 0.00 0.30 0.24 56 1015.5
20260906190514 72 238 4.0 14.0 0.00 0.30 0.24 59 1015.5
20260906190027 72 40 9.0 17.0 0.00 0.30 0.24 62 1015.5
20260906185512 71 9 9.0 22.0 0.00 0.30 0.24 59 1015.5
20260906185004 71 80 11.0 24.0 0.00 0.30 0.24 57 1015.6
20260906184508 71 29 14.0 24.0 0.00 0.30 0.24 61 1015.5
20260906184004 72 18 11.0 19.0 0.00 0.30 0.24 63 1015.5
20260906183503 72 43 11.0 19.0 0.00 0.30 0.24 59 1015.5
20260906183045 72 45 9.0 18.0 0.00 0.30 0.24 65 1015.6
20260906182509 71 23 12.0 17.0 0.00 0.30 0.24 63 1015.6
20260906182008 71 51 11.0 20.0 0.00 0.30 0.24 61 1015.7
20260906181534 71 44 9.0 20.0 0.00 0.30 0.24 64 1015.9
20260906181013 71 15 9.0 17.0 0.00 0.30 0.24 65 1015.9
20260906180509 71 44 11.0 20.0 0.00 0.30 0.24 63 1015.9
20260906180029 70 43 11.0 20.0 0.00 0.30 0.24 69 1015.9
20260906175515 70 344 7.0 19.0 0.00 0.30 0.24 66 1016.0
20260906175011 70 16 6.0 18.0 0.00 0.30 0.24 69 1016.0
20260906174527 70 38 12.0 18.0 0.00 0.30 0.24 72 1016.1
20260906174016 69 47 6.0 12.0 0.00 0.30 0.24 75 1016.2
20260906173513 69 34 5.0 13.0 0.00 0.30 0.24 74 1016.2
20260906173009 69 23 3.0 15.0 0.00 0.30 0.24 73 1016.2
20260906172516 68 42 6.0 16.0 0.00 0.30 0.24 76 1016.4
20260906172014 67 34 9.0 16.0 0.00 0.30 0.24 78 1016.3
20260906171532 66 36 7.0 14.0 0.00 0.30 0.24 81 1016.5
20260906171018 64 74 4.0 12.0 0.00 0.30 0.24 83 1016.5
20260906170518 64 43 5.0 20.0 0.00 0.30 0.24 83 1016.5
20260906170036 64 34 3.0 20.0 0.00 0.30 0.24 82 1016.6
20260906165511 65 36 11.0 28.0 0.00 0.30 0.24 79 1016.7
20260906165017 67 38 16.0 28.0 0.00 0.30 0.24 73 1016.7
20260906164528 69 55 12.0 20.0 0.00 0.30 0.24 74 1016.6
20260906164012 67 40 10.0 20.0 0.00 0.30 0.24 75 1016.6
20260906163514 67 317 9.0 19.0 0.00 0.30 0.24 75 1016.6
20260906163031 67 24 11.0 19.0 0.00 0.30 0.24 70 1016.7
20260906162517 69 23 9.0 17.0 0.00 0.30 0.24 75 1016.6
20260906162015 69 19 7.0 19.0 0.00 0.30 0.24 75 1016.5
20260906161545 68 59 11.0 19.0 0.00 0.30 0.24 75 1016.6
20260906161019 67 47 6.0 13.0 0.00 0.30 0.24 77 1016.7
20260906160520 68 61 8.0 13.0 0.00 0.30 0.24 77 1016.7
20260906160036 67 34 5.0 13.0 0.00 0.30 0.24 80 1016.7
20260906155516 67 44 8.0 13.0 0.00 0.30 0.24 81 1016.7
20260906155015 66 75 7.0 16.0 0.00 0.30 0.24 81 1016.8
20260906154543 64 49 5.0 16.0 0.00 0.30 0.24 83 1016.8
20260906154019 64 36 9.0 15.0 0.00 0.30 0.24 82 1016.8
20260906153510 65 18 4.0 13.0 0.00 0.30 0.24 85 1016.7
20260906153040 64 59 7.0 13.0 0.00 0.30 0.24 85 1016.7
20260906152511 64 38 7.0 12.0 0.00 0.30 0.24 84 1016.8
20260906152016 64 74 6.0 12.0 0.00 0.30 0.24 85 1016.8
20260906151531 63 29 2.0 11.0 0.00 0.30 0.24 89 1016.9
20260906151015 63 78 8.0 11.0 0.00 0.30 0.24 84 1017.0
20260906150519 64 93 6.0 11.0 0.00 0.30 0.24 83 1016.9
20260906150036 65 332 5.0 11.0 0.00 0.30 0.24 84 1016.9
20260906145515 64 312 3.0 10.0 0.00 0.30 0.24 86 1017.0
20260906145018 64 59 6.0 11.0 0.00 0.30 0.24 87 1016.8
20260906144535 64 49 6.0 12.0 0.00 0.30 0.24 86 1016.8
20260906144018 63 46 6.0 12.0 0.00 0.30 0.24 87 1017.0
20260906143519 63 43 7.0 12.0 0.01 0.30 0.24 87 1016.9
20260906143025 63 71 3.0 7.0 0.01 0.30 0.24 91 1016.9
20260906142503 62 30 2.0 7.0 0.03 0.30 0.24 91 1016.8
20260906142004 62 288 1.0 8.0 0.11 0.30 0.24 91 1017.0
20260906141508 62 59 3.0 8.0 0.11 0.30 0.24 91 1017.0
20260906141005 61 22 2.0 5.0 0.11 0.30 0.24 93 1017.0
20260906140505 61 83 2.0 8.0 0.11 0.30 0.24 93 1017.1
20260906140012 60 28 3.0 8.0 0.11 0.30 0.24 93 1017.2
20260906135504 60 30 4.0 8.0 0.11 0.30 0.24 94 1017.3
20260906135016 60 56 3.0 8.0 0.11 0.30 0.24 94 1017.2
20260906134533 60 51 2.0 4.0 0.11 0.30 0.24 93 1017.3
20260906134019 60 291 1.0 5.0 0.11 0.30 0.24 93 1017.2
20260906133515 60 325 3.0 6.0 0.10 0.29 0.23 93 1017.2
20260906133031 60 68 1.0 9.0 0.10 0.29 0.23 93 1017.1
20260906132509 60 65 4.0 9.0 0.08 0.27 0.21 93 1017.1
20260906132003 60 65 4.0 8.0 0.00 0.19 0.13 93 1017.1
20260906131504 60 27 5.0 8.0 0.00 0.19 0.13 93 1017.0
20260906131002 60 51 2.0 4.0 0.00 0.19 0.13 93 1016.8
20260906130502 60 9 2.0 8.0 0.00 0.19 0.13 94 1016.8
20260906130013 60 51 3.0 8.0 0.00 0.19 0.13 94 1016.9
20260906125506 60 43 3.0 6.0 0.00 0.19 0.13 94 1016.9
20260906125005 60 19 2.0 5.0 0.00 0.19 0.13 94 1017.0
20260906124514 60 38 2.0 6.0 0.00 0.19 0.13 94 1016.8
20260906124007 60 26 2.0 6.0 0.00 0.19 0.13 94 1016.8
20260906123510 60 61 2.0 6.0 0.00 0.19 0.13 94 1016.8
20260906123036 60 15 2.0 6.0 0.00 0.19 0.13 94 1016.8
20260906122512 60 36 3.0 6.0 0.00 0.19 0.13 94 1016.8
20260906122010 59 38 2.0 4.0 0.00 0.19 0.13 95 1016.8
20260906121535 59 51 2.0 8.0 0.00 0.19 0.13 95 1016.7
20260906121019 59 51 3.0 10.0 0.00 0.19 0.13 94 1016.7
20260906120503 59 54 5.0 10.0 0.00 0.19 0.13 95 1016.7
20260906120007 59 36 5.0 9.0 0.00 0.19 0.13 95 1016.7
20260906115503 59 38 4.0 9.0 0.00 0.19 0.13 95 1016.6
20260906115005 59 55 2.0 8.0 0.01 0.19 0.13 95 1016.5
20260906114519 58 28 3.0 8.0 0.01 0.19 0.13 95 1016.5
20260906114005 58 325 2.0 7.0 0.01 0.19 0.13 95 1016.4
20260906113508 58 17 3.0 8.0 0.01 0.19 0.13 95 1016.4
20260906113015 58 49 3.0 8.0 0.01 0.19 0.13 95 1016.3
20260906112503 58 59 2.0 7.0 0.01 0.19 0.13 95 1016.3
20260906112002 58 32 4.0 7.0 0.01 0.19 0.13 95 1016.2
20260906111504 58 21 2.0 7.0 0.01 0.19 0.13 95 1016.1
20260906111003 58 309 2.0 7.0 0.01 0.19 0.13 94 1016.1
20260906110503 58 29 3.0 5.0 0.01 0.19 0.13 94 1016.0
20260906110003 58 93 1.0 7.0 0.01 0.19 0.13 94 1015.8
20260906105502 58 34 2.0 9.0 0.02 0.19 0.13 94 1016.0
20260906105004 58 53 5.0 10.0 0.01 0.18 0.12 94 1015.8
20260906104504 58 15 5.0 12.0 0.01 0.18 0.12 94 1015.8
20260906104003 58 61 5.0 12.0 0.01 0.18 0.12 95 1015.7
20260906103503 59 36 4.0 12.0 0.01 0.18 0.12 95 1015.6
20260906103012 59 47 3.0 10.0 0.01 0.18 0.12 95 1015.5
20260906102502 59 19 3.0 10.0 0.01 0.18 0.12 95 1015.4
20260906102004 59 41 1.0 4.0 0.01 0.18 0.12 95 1015.5
20260906101504 59 44 2.0 4.0 0.01 0.18 0.12 95 1015.4
20260906101002 59 9 1.0 3.0 0.01 0.18 0.12 95 1015.3
20260906100505 59 38 1.0 7.0 0.01 0.18 0.12 95 1015.3
20260906100004 59 32 3.0 7.0 0.02 0.18 0.12 95 1015.3
20260906095503 59 22 2.0 4.0 0.02 0.17 0.11 95 1015.2
20260906095003 59 30 2.0 4.0 0.03 0.17 0.11 95 1015.2
20260906094506 59 309 1.0 4.0 0.03 0.17 0.11 95 1015.2
20260906094007 59 342 1.0 4.0 0.03 0.17 0.11 95 1015.2
20260906093504 59 344 1.0 4.0 0.03 0.17 0.11 95 1015.2
20260906093006 58 338 2.0 4.0 0.04 0.17 0.11 95 1015.1
20260906092503 59 325 2.0 4.0 0.04 0.17 0.11 95 1015.0
20260906092003 59 298 1.0 4.0 0.05 0.17 0.11 95 1015.0
20260906091504 59 325 1.0 4.0 0.05 0.17 0.11 95 1014.9
20260906091005 59 9 1.0 5.0 0.05 0.17 0.11 95 1014.9
20260906090503 59 31 2.0 8.0 0.07 0.17 0.11 95 1014.9
20260906090009 59 338 3.0 9.0 0.07 0.16 0.10 95 1014.8
20260906085504 59 302 4.0 9.0 0.07 0.15 0.09 94 1014.8
20260906085003 59 332 3.0 7.0 0.06 0.14 0.08 95 1014.9
20260906084510 59 9 1.0 4.0 0.07 0.14 0.08 95 1014.8
20260906084003 59 9 1.0 6.0 0.07 0.14 0.08 95 1014.9
20260906083503 59 15 1.0 6.0 0.07 0.14 0.08 95 1014.9
20260906083007 59 32 2.0 4.0 0.06 0.13 0.07 95 1014.9
20260906082503 59 9 2.0 4.0 0.06 0.13 0.07 94 1014.9
20260906082004 59 15 2.0 4.0 0.05 0.12 0.06 94 1014.8
20260906081510 59 34 1.0 4.0 0.05 0.12 0.06 95 1014.8
20260906081003 59 19 1.0 5.0 0.05 0.12 0.06 95 1014.8
20260906080506 59 341 1.0 5.0 0.03 0.10 0.04 95 1014.8
20260906080007 59 13 2.0 4.0 0.02 0.09 0.03 95 1014.9
20260906075503 60 9 1.0 8.0 0.01 0.08 0.02 95 1014.9
20260906075004 59 19 3.0 8.0 0.01 0.08 0.02 94 1014.9
20260906074510 59 34 3.0 5.0 0.00 0.07 0.01 95 1014.8
20260906074003 59 26 2.0 5.0 0.00 0.07 0.01 94 1014.8
20260906073507 60 26 3.0 4.0 0.00 0.07 0.01 94 1014.7
20260906073015 60 9 0.0 3.0 0.00 0.07 0.01 94 1014.7
20260906072503 60 316 0.0 3.0 0.00 0.07 0.01 94 1014.7
20260906072004 59 9 1.0 3.0 0.00 0.07 0.01 94 1014.7
20260906071524 59 341 1.0 2.0 0.00 0.07 0.01 94 1014.6
20260906071006 59 250 1.0 2.0 0.00 0.07 0.01 94 1014.6
20260906070509 60 325 0.0 2.0 0.00 0.07 0.01 94 1014.6
20260906070015 59 221 0.0 2.0 0.00 0.07 0.01 94 1014.7
20260906065507 59 9 0.0 3.0 0.00 0.07 0.01 94 1014.7
20260906065006 60 76 1.0 3.0 0.00 0.07 0.01 94 1014.6
20260906064513 60 9 0.0 2.0 0.00 0.07 0.01 94 1014.6
20260906064009 60 265 0.0 2.0 0.00 0.07 0.01 94 1014.6
20260906063508 60 221 0.0 2.0 0.00 0.07 0.01 94 1014.6
20260906063012 60 221 0.0 3.0 0.00 0.07 0.01 94 1014.6
20260906062505 60 67 0.0 4.0 0.00 0.07 0.01 94 1014.6
20260906062010 60 193 2.0 4.0 0.01 0.07 0.01 94 1014.5
20260906061515 60 188 2.0 3.0 0.01 0.07 0.01 94 1014.6
20260906061010 60 205 2.0 3.0 0.01 0.07 0.01 94 1014.7
20260906060505 60 153 0.0 2.0 0.01 0.07 0.01 94 1014.7
20260906060020 60 51 0.0 2.0 0.01 0.07 0.01 94 1014.8
20260906055505 60 93 0.0 2.0 0.01 0.07 0.01 94 1014.8
20260906055009 60 309 0.0 2.0 0.01 0.07 0.01 94 1014.7
20260906054515 60 265 0.0 2.0 0.01 0.07 0.01 94 1014.7
20260906054008 60 265 0.0 3.0 0.01 0.07 0.01 94 1014.7
20260906053508 60 309 0.0 4.0 0.01 0.07 0.01 94 1014.7
20260906053017 60 22 1.0 4.0 0.01 0.07 0.01 94 1014.7
20260906052509 60 34 3.0 4.0 0.01 0.07 0.01 94 1014.7
20260906052011 60 34 2.0 7.0 0.00 0.06 0.00 93 1014.8
20260906051518 60 16 3.0 8.0 0.00 0.06 0.00 93 1014.9
20260906051011 60 36 4.0 8.0 0.00 0.06 0.00 93 1014.9
20260906050513 60 325 3.0 9.0 0.00 0.06 0.00 93 1014.8
20260906050018 60 42 3.0 9.0 0.00 0.06 0.00 93 1014.9
20260906045513 60 53 3.0 7.0 0.00 0.06 0.00 93 1014.7
20260906045006 60 51 2.0 7.0 0.00 0.06 0.00 93 1014.7
20260906044518 60 340 3.0 7.0 0.00 0.06 0.00 93 1014.8
20260906044012 60 44 3.0 11.0 0.00 0.06 0.00 93 1014.8
20260906043509 60 41 5.0 11.0 0.00 0.06 0.00 93 1014.9
20260906043030 61 63 5.0 11.0 0.00 0.06 0.00 93 1014.7
20260906042510 61 34 6.0 9.0 0.00 0.06 0.00 93 1014.7
20260906042010 61 44 3.0 5.0 0.00 0.06 0.00 93 1014.7
20260906041521 61 47 3.0 5.0 0.00 0.06 0.00 93 1014.8
20260906041010 61 56 2.0 8.0 0.00 0.06 0.00 93 1014.8
20260906040509 61 57 4.0 8.0 0.01 0.06 0.00 93 1014.7
20260906040025 61 9 2.0 7.0 0.03 0.06 0.00 93 1014.7
20260906035511 61 17 3.0 7.0 0.03 0.06 0.06 93 1014.7
20260906035010 61 22 2.0 3.0 0.03 0.06 0.06 93 1014.6
20260906034546 61 61 0.0 6.0 0.03 0.06 0.06 93 1014.5
20260906034012 61 38 2.0 7.0 0.03 0.06 0.06 93 1014.4
20260906033510 61 13 3.0 7.0 0.03 0.06 0.06 92 1014.4
20260906033023 61 43 2.0 9.0 0.04 0.06 0.06 92 1014.4
20260906032510 61 46 3.0 9.0 0.04 0.06 0.06 92 1014.4
20260906032010 61 70 2.0 8.0 0.04 0.06 0.06 92 1014.4
20260906031531 62 347 3.0 8.0 0.05 0.06 0.06 92 1014.4
20260906031012 62 330 3.0 8.0 0.06 0.06 0.06 92 1014.3
20260906030513 62 330 2.0 7.0 0.05 0.05 0.05 92 1014.2
20260906030027 62 25 3.0 7.0 0.03 0.03 0.03 92 1014.2
20260906025515 62 17 2.0 4.0 0.03 0.03 0.03 92 1014.2
20260906025012 62 9 1.0 4.0 0.03 0.03 0.03 92 1014.3
20260906024527 62 46 2.0 7.0 0.03 0.03 0.03 91 1014.2
20260906024017 62 334 2.0 8.0 0.03 0.03 0.03 91 1014.2
20260906023515 63 9 3.0 8.0 0.03 0.03 0.03 91 1014.2
20260906023030 63 15 3.0 8.0 0.02 0.02 0.02 90 1014.1
20260906022510 63 49 4.0 8.0 0.02 0.02 0.02 90 1014.1
20260906022010 64 21 4.0 7.0 0.02 0.02 0.02 90 1014.1
20260906021531 64 93 1.0 3.0 0.01 0.01 0.01 89 1014.0
20260906021010 64 309 1.0 6.0 0.00 0.00 0.00 88 1014.0
20260906020511 64 9 1.0 7.0 0.00 0.00 0.00 87 1013.9
20260906020028 65 38 4.0 10.0 0.00 0.00 0.00 85 1013.9
20260906015503 65 302 3.0 10.0 0.00 0.00 0.00 85 1013.9
20260906015004 65 26 4.0 9.0 0.00 0.00 0.00 86 1013.7
20260906014507 65 30 2.0 7.0 0.00 0.00 0.00 86 1013.6
20260906014006 65 32 4.0 9.0 0.00 0.00 0.00 86 1013.5
20260906013514 65 34 5.0 11.0 0.00 0.00 0.00 86 1013.5
20260906013014 65 66 6.0 11.0 0.00 0.00 0.00 87 1013.5
20260906012512 65 21 3.0 9.0 0.00 0.00 0.00 88 1013.5
20260906012008 65 65 4.0 6.0 0.00 0.00 0.00 87 1013.4
20260906011518 65 9 0.0 2.0 0.00 0.00 0.00 87 1013.3
20260906011012 65 221 0.0 2.0 0.00 0.00 0.00 87 1013.4
20260906010509 65 9 0.0 3.0 0.00 0.00 0.00 87 1013.4
20260906010027 65 30 0.0 3.0 0.00 0.00 0.00 86 1013.3
20260906005514 65 51 0.0 3.0 0.00 0.00 0.00 85 1013.3
20260906005012 66 298 1.0 4.0 0.00 0.00 0.00 85 1013.2
20260906004530 65 334 1.0 4.0 0.00 0.00 0.00 86 1013.1
20260906004005 65 9 2.0 4.0 0.00 0.00 0.00 86 1013.1
20260906003504 65 9 1.0 4.0 0.00 0.00 0.00 87 1013.0
20260906003008 65 28 2.0 4.0 0.00 0.00 0.00 87 1013.0
20260906002515 65 9 0.0 2.0 0.00 0.00 0.00 87 1012.9
20260906002009 65 291 0.0 2.0 0.00 0.00 0.00 87 1012.9
20260906001532 65 309 0.0 2.0 0.00 0.00 0.00 87 1012.9
20260906001007 65 51 0.0 3.0 0.00 0.00 0.00 86 1012.9
20260906000516 65 265 0.0 3.0 0.00 0.00 0.00 86 1012.9
20260906000025 65 93 0.0 3.0 0.00 0.00 0.00 86 1012.9
20260905235514 65 282 1.0 3.0 0.00 0.00 0.00 86 1012.8